{"data":{"norad_id":57338,"epoch":"2026-05-25T02:58:21.267264Z","epoch_age_seconds":64275,"freshness":"FRESH","line1":"1 57338U 23099L   26145.12385726  .00001229  00000+0  54157-4 0  9990","line2":"2 57338  43.0022 180.9380 0000526 264.6369  95.4422 15.27581139157761","mean_motion":15.27581139,"eccentricity":5.26e-5,"inclination_deg":43.0022,"raan_deg":180.938,"arg_perigee_deg":264.6369,"mean_anomaly_deg":95.4422,"bstar":5.4157e-5,"rev_number":15776,"period_min":94.266678426173,"perigee_km":482.68478725676,"apogee_km":483.40658367527,"semimajor_km":6861.182685466,"source":"CELESTRAK","updated_at":"2026-05-25T13:38:18.287374Z"}}